sat.trackr.live / text

‹ back to catalog

STARLINK-35209

NORAD 65636 · 2025-210Q

PAYLOAD ACTIVE UNKNOWN

§ Identity

Operator
Country
US
Launch date
2025-09-18
Launch site
AFETR
Launch vehicle
Mass (kg)
RCS (m²)

Purposes: comms

External: N2YO · Heavens-Above · Gunter

§ Orbital elements

Epoch: 2026-05-24T20:57:37.364832Z

Period
93.85 min
Inclination
53.1604°
Eccentricity
0.0000498
Mean motion
15.34416824 rev/d
Perigee alt
462.3 km
Apogee alt
463.0 km
Semi-major
6,840.8 km
B*
7.7802e-4
RAAN
312.6148°
Arg perigee
63.2841°
Mean anomaly
296.8213°
Rev number
3,940

§ Raw data

STARLINK-352091 65636U 25210Q   26144.87334913  .00026016  00000+0  77802-3 0  99922 65636  53.1604 312.6148 0000498  63.2841 296.8213 15.34416824 39402

JSON: /api/v1/satellites/65636 · /tle

For live sub-satellite position, see the globe view (requires WebGL).

§ Visibility from observer

Set your observer location to see the next 7 days of passes ≥ 10°. The values pass through the URL so the page stays shareable.

No JS? Fill the form by hand. The geolocation button needs JavaScript.